LEBL

Barcelona/El Prat Airport

Airport
ICAO code
LEBL
IATA Code
BCN
Summary
ICAO Region
EUR
ICAO Territory
Location

El Prat de Llobregat, Catalonia

Serving
Barcelona
Elevation
13 ft
Coordinates
41° 17' 34" N , 2° 5' 10" E
KCC
Airport LOS
Parallel Runway Operation
Airport WX
Fog
Metar
LEBL 191930Z 08008KT 040V100 9999 SCT015 22/20 Q1014 NOSIG

International airport 6 nm south west of Barcelona.

Climatology

Dry-summer subtropical ”Mediterranean" climate (Köppen climate classification Csa) - characterized by hot, dry summers and mild winters. During the summer, subtropical high pressure cells dominate, making rainfall unlikely except for the occasional thunderstorm. In the winter, periodic storms bring rain (snow at higher elevations).

Runways

Designator Length Width Surface Rops
2/20 2540 45 ASP Yes/Yes
07R/25L 2660 60 ASP Yes/Yes
07L/25R 3552 45 ASP Yes/Yes

SKYbrary Partners:

Safety knowledge contributed by: